Regional Weather Roundup
Issued by NWS

Home | Current Version | Previous Version | Graphics & Text | Print | Product List | Glossary On
Versions: 1 2 3 4 5 6 7 8 9 10 11 12 13 14 15 16 17 18 19 20 21 22 23 24 25 26 27 28 29 30 31 32 33 34 35 36 37 38 39 40 41 42 43 44 45 46 47 48 49 50
000
ASUS43 KOAX 212002
RWRNE

WEATHER ROUNDUP FOR NEBRASKA
NATIONAL WEATHER SERVICE OMAHA NE
300 PM CDT SAT APR 21 2018

NOTES: SATELLITE DATA IS BEING USED TO AUGMENT CLOUD COVER ABOVE
       12000 FEET.
       "FAIR" INDICATES FEW OR NO CLOUDS BELOW 12,000 FEET WITH NO
       SIGNIFICANT WEATHER AND/OR OBSTRUCTIONS TO VISIBILITY.


NEZ001>004-019>022-054>056-212100-
NEBRASKA PANHANDLE

CITY           SKY/WX    TMP DP  RH WIND       PRES   REMARKS
SCOTTSBLUFF    CLOUDY    42  41  96 SE7       30.20S
ALLIANCE       CLOUDY    40  37  89 S3        30.20F
CHADRON        CLOUDY    41  36  82 S9        30.21F
GORDON         DRIZZLE   41  38  89 S7        30.22F
KIMBALL        DRIZZLE   40  36  86 CALM      30.18F
SIDNEY         LGT RAIN  38  33  82 E5        30.20F WCI  34
$$

NEZ057>060-069>072-079>082-212100-
SOUTHWEST NEBRASKA

CITY           SKY/WX    TMP DP  RH WIND       PRES   REMARKS
NORTH PLATTE   CLOUDY    45  38  76 E8        30.22F
IMPERIAL       CLOUDY    42  39  89 NE8       30.20F
LEXINGTON      CLOUDY    45  39  81 NE6       30.24R
MCCOOK         CLOUDY    43  39  86 E13       30.21S
OGALLALA       CLOUDY    42  38  86 E3        30.22S
$$

NEZ005>010-023>029-035>040-094-212100-
NORTH CENTRAL NEBRASKA

CITY           SKY/WX    TMP DP  RH WIND       PRES   REMARKS
VALENTINE      CLOUDY    48  38  68 SE12      30.26F
AINSWORTH      CLOUDY    42  40  92 E8        30.26F
BROKEN BOW     CLOUDY    46  37  71 NE13      30.23F
O`NEILL        CLOUDY    48  36  63 NE9       30.26F
ORD            LGT RAIN  45  38  76 NE5       30.24F
THEDFORD       CLOUDY    45  39  78 E9        30.25F
$$

NEZ041-046>049-061>064-073>077-083>087-212100-
SOUTH CENTRAL NEBRASKA

CITY           SKY/WX    TMP DP  RH WIND       PRES   REMARKS
GRAND ISLAND   CLOUDY    44  40  85 E8        30.25S
AURORA         CLOUDY    45  41  88 E5        30.24F
HASTINGS       CLOUDY    43  41  93 E10       30.23S
HEBRON         CLOUDY    46  41  82 E10       30.22F
HOLDREGE       LGT RAIN  43  40  89 NE9       30.22S
YORK             N/A     46  45  93 E9        30.24S
$$

NEZ011>018-030>034-042>045-212100-
NORTHEAST NEBRASKA

CITY           SKY/WX    TMP DP  RH WIND       PRES   REMARKS
NORFOLK        CLOUDY    51  30  44 SE6       30.24F
ALBION         CLOUDY    50  33  52 E8        30.26F
BLAIR          CLOUDY    54  29  39 E6        30.25F
COLUMBUS       CLOUDY    50  31  48 E12       30.26F
FREMONT        CLOUDY    54  30  39 E5        30.27F
TEKAMAH        CLOUDY    55  29  36 E7        30.26F
WAYNE          CLOUDY    49  34  55 NE6       30.28F
$$

NEZ050>053-065>068-078-088>093-212100-
SOUTHEAST NEBRASKA

CITY           SKY/WX    TMP DP  RH WIND       PRES   REMARKS
LINCOLN        CLOUDY    52  33  48 E12       30.26F
OMAHA EPPLEY   CLOUDY    54  31  41 NW5       30.25F
BEATRICE       LGT RAIN  47  43  85 E9        30.23F
FALLS CITY     CLOUDY    49  41  74 N10       30.21S
NEBRASKA CITY  DRIZZLE   49  42  75 N6        30.25F
PLATTSMOUTH    CLOUDY    53  29  39 CALM      30.25F
$$

NEZ044-045-051>053-067-212100-
OMAHA AREA

CITY           SKY/WX    TMP DP  RH WIND       PRES   REMARKS
OMAHA EPPLEY   CLOUDY    54  31  41 NW5       30.25F
BLAIR          CLOUDY    54  29  39 E6        30.25F
FREMONT        CLOUDY    54  30  39 E5        30.27F
MILLARD        CLOUDY    54  30  40 S3        30.26F
OFFUTT AFB     CLOUDY    54  29  38 SW3       30.24F
PLATTSMOUTH    CLOUDY    53  29  39 CALM      30.25F
WAHOO          CLOUDY    53  25  34 E6        30.25F
$$




USA.gov is the U.S. government's official web portal to all federal, state and local government web resources and services.